Regional Weather Roundup
Issued by NWS

Home | Current Version | Previous Version | Graphics & Text | Print | Product List | Glossary On
Versions: 1 2 3 4 5 6 7 8 9 10 11 12 13 14 15 16 17 18 19 20 21 22 23 24 25 26 27 28 29 30 31 32 33 34 35 36 37 38 39 40 41 42 43 44 45 46 47 48 49 50
000
ASUS43 KMKX 281900
RWRWI

WISCONSIN REGIONAL WEATHER ROUNDUP
NATIONAL WEATHER SERVICE MILWAUKEE/SULLIVAN WI
200 PM CDT WED SEP 28 2016

NOTE: "FAIR" INDICATES FEW OR NO CLOUDS BELOW 12,000 FEET WITH NO
SIGNIFICANT WEATHER AND/OR OBSTRUCTIONS TO VISIBILITY.

WIZ001-002-006>008-014>016-023>028-282000-
NORTHWEST WISCONSIN

CITY           SKY/WX    TMP DP  RH WIND       PRES   REMARKS
SUPERIOR ARPT  CLOUDY    60  50  71 E12       30.24R
ASHLAND        CLOUDY    58  51  78 NE12      30.22R
HAYWARD        CLOUDY    57  50  77 N16       30.20R
SIREN          CLOUDY    58  49  70 N13       30.21R
CUMBERLAND     CLOUDY    57  46  67 N10       30.18R
RICE LAKE      CLOUDY    61  49  63 N14G21    30.18R
CHETEK         NOT AVBL
LADYSMITH      CLOUDY    60  52  74 N9        30.17R
EAU CLAIRE     NOT AVBL
MENOMONIE      MOSUNNY   67  47  49 N15G25    30.13S
NEW RICHMOND   CLOUDY    61  48  61 NE12G18   30.18R
OSCEOLA        CLOUDY    61  49  65 N7        30.22R
$$

WIZ003>005-009-010-017-018-282000-
NORTH CENTRAL WISCONSIN

CITY           SKY/WX    TMP DP  RH WIND       PRES   REMARKS
MANITOWISH WTR NOT AVBL
ARBOR VITAE    PTSUNNY   59  51  75 N14       30.14R
WOODRUFF       PTSUNNY   59  51  75 N14       30.14R
RHINELANDER    CLOUDY    61  49  64 VRB7      30.13R
EAGLE RIVER    CLOUDY    60  48  64 NE14G21   30.14R
LAND O LAKES   CLOUDY    58  51  77 NE9       30.17R
PHILLIPS       CLOUDY    57  52  81 N13G20    30.15R
TOMAHAWK       CLOUDY    59  47  63 NE5       30.14R
MEDFORD        CLOUDY    58  48  69 NE9G17    30.12R
MERRILL        CLOUDY    61  50  67 NE8       30.12R
$$

WIZ029-030-035-036-043>047-282000-
CENTRAL WISCONSIN

CITY           SKY/WX    TMP DP  RH WIND       PRES   REMARKS
WAUSAU         PTSUNNY   61  48  62 N8        30.09R
MOSINEE        CLOUDY    61  48  63 NE13G21   30.11R
MARSHFIELD     CLOUDY    60  48  64 N16G24    30.09R
STEVENS POINT  LGT RAIN  54  51  90 NE9G25    30.09R
WAUPACA        PTSUNNY   60  52  73 N9G21     30.08R
WAUTOMA        CLOUDY    62  49  62 N15G23    30.06R
WISC RAPIDS    CLOUDY    61  50  67 NE10G18   30.09R
CAMP DOUGLAS   NOT AVBL
$$

WIZ011>013-019>022-031-037>040-048>050-282000-
NORTHEAST WISCONSIN

CITY           SKY/WX    TMP DP  RH WIND       PRES   REMARKS
ANTIGO         MOSUNNY   60  48  63 NE16      30.10R
SHAWANO        CLOUDY    59  54  81 NE12G18   30.08R
OCONTO         NOT AVBL
STURGEON BAY   MOSUNNY   61  49  64 E8        30.08R
GREEN BAY      CLOUDY    61  52  72 NE16G23   30.06R
MANITOWOC      PTSUNNY   61  48  63 MISG      30.04R
APPLETON       PTSUNNY   57  48  72 NE12      30.04R
CLINTONVILLE   NOT AVBL
OSHKOSH        CLOUDY    59  51  75 NE15      30.03R
$$

WIZ032>034-041-042-053>061-282000-
SOUTHWEST WISCONSIN

CITY           SKY/WX    TMP DP  RH WIND       PRES   REMARKS
LA CROSSE      CLOUDY    60  55  83 N8        30.10R
SPARTA         PTSUNNY   60  52  76 N7        30.08R
VIROQUA        CLOUDY    62  48  60 N13G18    30.07R
BOSCOBEL       CLOUDY    61  50  67 N7        30.06R
PRAIRIE DU CHI CLOUDY    60  48  64 N7        30.07R
PLATTEVILLE    CLOUDY    59  51  74 N14       30.04R
$$

WIZ056-057-062-063-064-067-068-282000-
SOUTH CENTRAL WISCONSIN

CITY           SKY/WX    TMP DP  RH WIND       PRES   REMARKS
REEDSBURG      NOT AVBL
BARABOO/DELLS  PTSUNNY   60  47  64 NE14G20   30.04R
LONE ROCK      NOT AVBL
MINERAL POINT  CLOUDY    61  50  67 N12G17    30.04R
MADISON        PTSUNNY   60  52  74 N13       30.00F
MIDDLETON      CLOUDY    58  53  84 N12       30.02R
WATERTOWN      CLOUDY    58  50  75 NE12G18   30.00R
MONROE         CLOUDY    59  46  63 N13       30.00R
JANESVILLE     LGT RAIN  55  54  94 N6        29.99R
$$

WIZ051-052-058>065-066-070>072-282000-
SOUTHEAST WISCONSIN

CITY           SKY/WX    TMP DP  RH WIND       PRES   REMARKS
MILWAUKEE      CLOUDY    61  50  67 N10       29.98S
WAUKESHA       CLOUDY    57  50  77 NE7       30.00R
MILWAUKEE/TIMM MOSUNNY   61  48  63 N8        29.99R
RACINE         CLOUDY    59  50  72 N15       29.98S
BURLINGTON     DRIZZLE   58  47  68 NE10      29.98R
KENOSHA        CLOUDY    61  49  64 N10G20    29.96S
FOND DU LAC    CLOUDY    60  51  72 NE14      30.03R
SHEBOYGAN      PTSUNNY   61  51  70 NE14      30.02R
WEST BEND      PTSUNNY   59  50  72 NE12      30.00R
JUNEAU         CLOUDY    56  52  87 N12G17    30.02R
$$

LSZ147-162-282000-
LAKE SUPERIOR

STATION/POSITION TIME  TEMP    WIND        PRES    WAVE
                       AIR SEA DIR/SP/G            HT/PER
                 (UTC) (F)     (DEG/KT/KT) (MB)    (FT/S)
W MID LAKE BUOY  1750   55 51   40/ 10/ 12 1022.4R   5/ 7
DEVILS ISLAND    1800   54      30/ 13/ 15 1023.4R
SAXON HARBOR     1840   56      20/ 16/ 19 1022.7R
$$

LMZ867-665-643>646-282000-
LAKE MICHIGAN

STATION/POSITION TIME  TEMP    WIND        PRES    WAVE
                       AIR SEA DIR/SP/G            HT/PER
                 (UTC) (F)     (DEG/KT/KT) (MB)    (FT/S)
CHAMBERS ISLAND  1800   60      30/ 17/ 23 1017.6R
N MID LAKE BUOY  1750   60 66   60/ 16/ 17 1017.4R   2/ 4
NORTHPORT PIER   1800   62      40/ 17/ 20 1017.9R
SISTER BAY       1708   66      80/ 10/ 20   N/A
KEWAUNEE LAKESHO 1800   60      40/  7/ 12 1016.5R
SHEBOYGAN LAKESH 1800   57      30/ 13/ 14 1015.9R
PORT WASHINGTON  1840   58      40/  7/ 10 1016.6R
ATWATER BUOY     1800   54 54  350/  8/ 10 1015.2R
MILWAUKEE LAKESH 1810   55      10/ 10/ 12   N/A
S MID LAKE BUOY  1750   60 69   30/ 16/ 19 1012.8R   1/ 3
KENOSHA   LAKESH 1800   53      10/ 15/ 16 1014.2R
$$

TC  - TEMPERATURE IN CELSIUS
VSB - VISIBILITY IN STATUTE MILES
WCI - WIND CHILL INDEX
HX  - HEAT INDEX





USA.gov is the U.S. government's official web portal to all federal, state and local government web resources and services.